This demonstration page uses our WeatherBlox Daily Observations layout. Learn more.

Hourly Observations for May 11, 2018

Temp ( °F °C ) Dew Point ( °F °C ) Humidity (%) Winds ( mph kmh ) Pressure ( in mb ) Visibility ( mi km ) Precip ( " mm )
12:54 am 00:54 Mostly Cloudy 65 18.3 42 5.6 43 43 ENE 14 22 29.77 1008 10 16.0934 0 0
1:54 am 01:54 Mostly Clear 63 17.2 42 5.6 47 47 NE 9 15 29.79 1009 10 16.0934 0 0
2:54 am 02:54 Cloudy 63 17.2 42 5.6 47 47 N 25 41 29.84 1011 10 16.0934 0 0
3:06 am 03:06 Mostly Cloudy 61 16.1 40 4.4 46 46 NNW 29 46 29.83 1010 9 14.48406 0 0
3:54 am 03:54 Mostly Clear 55 12.8 41 5 59 59 N 28 44 29.84 1010 10 16.0934 0 0.0254
4:08 am 04:08 Mostly Cloudy with Nearby Thunderstorms 52 11.1 43 6.1 72 72 N 22 35 29.88 1012 10 16.0934 0 0.0254
4:16 am 04:16 Mostly Cloudy with Thunderstorms 51 10.6 44 6.7 77 77 NNE 22 35 29.88 1012 7 11.26538 0 0.0254
4:30 am 04:30 Mostly Cloudy with Heavy Thunderstorms 49 9.4 45 7.2 86 86 NE 21 33 29.77 1008 2 3.21868 0.08 2.032
4:36 am 04:36 Mostly Cloudy with Nearby Thunderstorms 49 9.4 46 7.8 90 90 NE 25 41 29.77 1008 6 9.65604 0.09 2.286
4:44 am 04:44 Windy with Storms Likely 50 10 46 7.8 86 86 ENE 20 31 29.8 1009 10 16.0934 0.09 2.286
4:54 am 04:54 Cloudy with Nearby Thunderstorms 50 10 46 7.8 86 86 NNW 15 24 29.83 1010 4 6.43736 0.13 3.302
4:57 am 04:57 Cloudy with Thunderstorms 51 10.6 47 8.3 86 86 WNW 21 33 29.91 1013 5 8.0467 0 0.0254
5:06 am 05:06 Cloudy with Heavy Thunderstorms 50 10 47 8.3 89 89 NNW 20 31 29.91 1013 2.5 4.02335 0.06 1.524
5:14 am 05:14 Cloudy with Heavy Thunderstorms 49 9.4 47 8.3 93 93 E 18 30 29.83 1010 1.75 2.816345 0.18 4.572
5:19 am 05:19 Cloudy with Heavy Thunderstorms 49 9.4 47 8.3 93 93 E 14 22 29.8 1009 2 3.21868 0.21 5.334
5:33 am 05:33 Mostly Cloudy with Nearby Thunderstorms 50 10 47 8.3 89 89 NE 8 13 29.83 1010 7 11.26538 0.26 6.604
5:54 am 05:54 Mostly Cloudy with Heavy Thunderstorms 49 9.4 47 8.3 93 93 NNE 16 26 29.81 1010 5 8.0467 0.29 7.366
6:04 am 06:04 Cloudy with Light Thunderstorms 49 9.4 47 8.3 93 93 NE 12 19 29.83 1010 6 9.65604 0.02 0.508
6:06 am 06:06 Cloudy with Light Rain 49 9.4 47 8.3 93 93 NE 13 20 29.8 1009 6 9.65604 0.02 0.508
6:46 am 06:46 Mostly Cloudy 49 9.4 47 8.3 93 93 E 9 15 29.77 1008 8 12.87472 0.02 0.508
6:54 am 06:54 Mostly Cloudy 50 10 47 8.3 89 89 ESE 13 20 29.74 1007 7 11.26538 0.02 0.508
7:54 am 07:54 Partly Cloudy 53 11.7 51 10.6 93 93 VRB 3 6 29.71 1006 8 12.87472 0 0
8:54 am 08:54 Sunny 59 15 53 11.7 81 81 undefined N/A 29.72 1007 10 16.0934 0 0
9:12 am 09:12 Mostly Sunny 57 13.9 53 11.7 87 87 N 20 31 29.77 1008 8 12.87472 0 0
9:54 am 09:54 Partly Cloudy 56 13.3 51 10.6 84 84 N 18 30 29.78 1009 8 12.87472 0 0
10:02 am 10:02 Mostly Cloudy 55 12.8 51 10.6 87 87 N 17 28 29.8 1009 7 11.26538 0 0
10:54 am 10:54 Cloudy 55 12.8 50 10 83 83 NE 15 24 29.79 1009 7 11.26538 0 0
11:10 am 11:10 Cloudy 57 13.9 51 10.6 81 81 NNE 15 24 29.8 1009 9 14.48406 0 0
11:54 am 11:54 Cloudy 61 16.1 53 11.7 75 75 NE 17 28 29.77 1008 8 12.87472 0 0
12:20 pm 12:20 Cloudy 63 17.2 55 12.8 76 76 NE 13 20 29.77 1008 8 12.87472 0 0
12:39 pm 12:39 Cloudy 64 17.8 55 12.8 73 73 ENE 14 22 29.74 1007 8 12.87472 0 0
12:54 pm 12:54 Cloudy 65 18.3 56 13.3 73 73 NE 13 20 29.75 1008 8 12.87472 0 0
1:54 pm 13:54 Cloudy 65 18.3 56 13.3 73 73 NE 12 19 29.75 1007 7 11.26538 0 0
2:54 pm 14:54 Cloudy 66 18.9 57 13.9 73 73 NE 10 17 29.73 1007 7 11.26538 0 0
3:54 pm 15:54 Cloudy 66 18.9 57 13.9 73 73 NNE 13 20 29.74 1007 7 11.26538 0 0
4:54 pm 16:54 Cloudy with Haze 67 19.4 58 14.4 73 73 NE 8 13 29.75 1007 6 9.65604 0 0
5:54 pm 17:54 Cloudy with Haze 68 20 58 14.4 70 70 ENE 13 20 29.75 1008 6 9.65604 0 0
6:54 pm 18:54 Mostly Cloudy 66 18.9 59 15 78 78 ENE 10 17 29.76 1008 7 11.26538 0 0
7:31 pm 19:31 Cloudy with Haze 65 18.3 59 15 81 81 ENE 15 24 29.74 1007 6 9.65604 0 0
7:54 pm 19:54 Cloudy with Haze 64 17.8 59 15 84 84 ENE 17 28 29.77 1008 6 9.65604 0 0
8:42 pm 20:42 Cloudy with Haze 63 17.2 58 14.4 84 84 ENE 16 26 29.77 1008 6 9.65604 0 0
8:54 pm 20:54 Cloudy 63 17.2 58 14.4 84 84 NE 14 22 29.79 1009 7 11.26538 0 0
9:09 pm 21:09 Cloudy 63 17.2 58 14.4 84 84 NE 13 20 29.8 1009 7 11.26538 0 0
9:54 pm 21:54 Cloudy with Haze 62 16.7 57 13.9 84 84 NE 14 22 29.83 1010 6 9.65604 0 0
10:54 pm 22:54 Cloudy with Haze 60 15.6 55 12.8 84 84 NE 15 24 29.85 1011 5 8.0467 0 0
11:54 pm 23:54 Cloudy 59 15 54 12.2 83 83 NE 15 24 29.85 1011 7 11.26538 0 0

Powered by AerisWeather